Weather History for Cincinnati, OH

Change the Weather History Date:

Saturday, October 29, 2011

  Actual Average Record
Temperature  
Mean Temperature 42 °F -  
Max Temperature 57 °F 60 °F 80 °F (1971)
Min Temperature 30 °F 39 °F 23 °F (1976)
Degree Days  
Heating Degree Days 22    
Moisture  
Dew Point 32 °F    
Average Humidity 84    
Maximum Humidity 100    
Minimum Humidity 37    
Precipitation  
Precipitation 0.00 in - - ()
Sea Level Pressure  
Sea Level Pressure 30.13 in    
Wind  
Wind Speed 1 mph (WSW)    
Max Wind Speed 14 mph    
Max Gust Speed 21 mph    
Visibility 4 miles    
Events Fog    
Averages and records for this station are not official NWS values.
T = Trace of Precipitation, MM = Missing Value Source: NWS Daily Summary

Daily Weather History Graph

Daily Weather History Graph

Search for Another Location

Airport:

Trip Planner

Search our weather history database for the weather conditions in past years. The results will help you decide how hot, cold, wet, or windy it might be!

Date:

Astronomy

Oct. 29, 2011 Rise Set
Actual Time 8:01 AM EDT 6:40 PM EDT
Civil Twilight 7:34 AM EDT 7:08 PM EDT
Nautical Twilight 7:02 AM EDT 7:39 PM EDT
Astronomical Twilight 6:31 AM EDT 8:10 PM EDT
Moon 11:21 AM EDT (10/29) 9:04 PM EDT (10/29)
Length of Visible Light 11h 34m
Length of Day
10h 38m
Waxing Crescent, 11% of the Moon is Illuminated
Oct 29
Waxing Crescent
Nov 2
First Quarter
Nov 10
Full
Nov 18
Last Quarter
Nov 25
New

Hourly Weather History & Observations

Time (EDT) Temp. Windchill Dew Point Humidity Pressure Visibility Wind Dir Wind Speed Gust Speed Precip Events Conditions
12:10 AM 33.8 °F - 32.0 °F 93% 30.13 in 1.5 mi Calm Calm - N/A   Clear
12:16 AM 33.8 °F - 32.0 °F 93% 30.13 in 0.5 mi Calm Calm - N/A Fog Fog
12:26 AM 32.0 °F - 30.2 °F 93% 30.13 in 0.2 mi Calm Calm - N/A Fog Fog
12:35 AM 33.8 °F - 30.2 °F 87% 30.12 in 1.0 mi Calm Calm - N/A   Mist
12:38 AM 33.8 °F - 32.0 °F 93% 30.12 in 2.0 mi Calm Calm - N/A   Partly Cloudy
12:46 AM 33.8 °F - 32.0 °F 93% 30.12 in 4.0 mi Calm Calm - N/A   Partly Cloudy
12:53 AM 30.9 °F - 30.0 °F 96% 30.13 in 2.0 mi Calm Calm - N/A   Scattered Clouds
12:57 AM 30.2 °F - 30.2 °F 100% 30.12 in 1.0 mi Calm Calm - N/A   Mist
1:05 AM 30.2 °F - 30.2 °F 100% 30.12 in 0.2 mi Calm Calm - N/A Fog Light Freezing Fog
1:12 AM 30.2 °F 26.7 °F 30.2 °F 100% 30.12 in 0.2 mi East 3.5 mph - N/A Fog Light Freezing Fog
1:18 AM 30.2 °F - 30.2 °F 100% 30.12 in 0.8 mi Calm Calm - N/A   Mist
1:25 AM 30.2 °F - 28.4 °F 93% 30.13 in 2.0 mi Calm Calm - N/A   Mostly Cloudy
1:36 AM 30.2 °F - 30.2 °F 100% 30.12 in 1.0 mi Calm Calm - N/A   Mist
1:44 AM 30.2 °F - 28.4 °F 93% 30.12 in 0.5 mi Calm Calm - N/A Fog Light Freezing Fog
1:53 AM 30.9 °F - 30.0 °F 96% 30.14 in 0.2 mi Calm Calm - N/A Fog Light Freezing Fog
2:53 AM 32.0 °F - 30.9 °F 96% 30.12 in 0.2 mi Calm Calm - N/A Fog Fog
3:53 AM 32.0 °F - 32.0 °F 100% 30.13 in 0.2 mi Calm Calm - N/A Fog Fog
4:53 AM 33.1 °F - 32.0 °F 96% 30.12 in 0.2 mi Calm Calm - N/A Fog Fog
5:53 AM 33.8 °F - 33.8 °F 100% 30.12 in 0.2 mi Calm Calm - N/A Fog Fog
6:53 AM 35.1 °F - 34.0 °F 96% 30.14 in 0.2 mi Calm Calm - N/A Fog Fog
7:53 AM 33.1 °F 30.0 °F 32.0 °F 96% 30.13 in 0.2 mi SSW 3.5 mph - N/A Fog Fog
8:53 AM 33.1 °F - 32.0 °F 96% 30.14 in 0.2 mi Calm Calm - N/A Fog Fog
9:53 AM 35.1 °F - 34.0 °F 96% 30.14 in 0.2 mi Calm Calm - N/A Fog Fog
10:04 AM 35.6 °F - 35.6 °F 100% 30.14 in 3.0 mi Calm Calm - N/A   Scattered Clouds
10:53 AM 41.0 °F 39.0 °F 37.0 °F 86% 30.15 in 10.0 mi SSW 3.5 mph - N/A   Clear
11:53 AM 46.9 °F - 39.0 °F 74% 30.14 in 10.0 mi Calm Calm - N/A   Partly Cloudy
12:53 PM 52.0 °F - 37.9 °F 59% 30.13 in 10.0 mi SW 3.5 mph - N/A   Mostly Cloudy
1:53 PM 54.0 °F - 35.1 °F 49% 30.10 in 10.0 mi West 9.2 mph - N/A   Partly Cloudy
2:53 PM 55.0 °F - 34.0 °F 45% 30.09 in 10.0 mi WSW 8.1 mph - N/A   Clear
3:53 PM 55.9 °F - 32.0 °F 40% 30.08 in 10.0 mi WSW 12.7 mph - N/A   Partly Cloudy
4:53 PM 55.0 °F - 30.9 °F 40% 30.09 in 10.0 mi West 13.8 mph 19.6 mph N/A   Partly Cloudy
5:53 PM 54.0 °F - 28.0 °F 37% 30.09 in 10.0 mi West 8.1 mph - N/A   Partly Cloudy
6:53 PM 51.8 °F - 28.4 °F 41% 30.09 in 10.0 mi NW 4.6 mph 20.7 mph N/A   Mostly Cloudy
7:53 PM 42.1 °F - 34.0 °F 73% 30.12 in 10.0 mi Calm Calm - N/A   Partly Cloudy
8:53 PM 42.1 °F - 35.1 °F 76% 30.14 in 10.0 mi Calm Calm - N/A   Overcast
9:53 PM 37.9 °F - 34.0 °F 86% 30.14 in 10.0 mi Calm Calm - N/A   Partly Cloudy
10:53 PM 39.0 °F - 34.0 °F 82% 30.17 in 10.0 mi Calm Calm - N/A   Clear
11:53 PM 36.0 °F - 33.1 °F 89% 30.17 in 9.0 mi Calm Calm - N/A   Clear